Weather History for Devils Lake, ND

Change the Weather History Date:

Wednesday, December 19, 2012

  Actual Average Record
Temperature  
Mean Temperature 16 °F -  
Max Temperature 24 °F 15 °F 45 °F (1979)
Min Temperature 8 °F 0 °F -28 °F (1983)
Degree Days  
Heating Degree Days 49    
Moisture  
Dew Point 13 °F    
Average Humidity 82    
Maximum Humidity 93    
Minimum Humidity 73    
Precipitation  
Precipitation 0.00 in - - ()
Sea Level Pressure  
Sea Level Pressure 29.84 in    
Wind  
Wind Speed 9 mph (WNW)    
Max Wind Speed 15 mph    
Max Gust Speed -    
Visibility 10 miles    
Events      
Averages and records for this station are not official NWS values.
T = Trace of Precipitation, MM = Missing Value Source: NWS Daily Summary

Daily Weather History Graph

Daily Weather History Graph

Search for Another Location

Airport:

Trip Planner

Search our weather history database for the weather conditions in past years. The results will help you decide how hot, cold, wet, or windy it might be!

Date:

Astronomy

Dec. 19, 2012 Rise Set
Actual Time 8:22 AM CST 4:43 PM CST
Civil Twilight 7:45 AM CST 5:20 PM CST
Nautical Twilight 7:06 AM CST 6:00 PM CST
Astronomical Twilight 6:28 AM CST 6:38 PM CST
Moon 12:01 PM CST (12/19) No Moon Set
Length of Visible Light 9h 34m
Length of Day
8h 21m
Waxing Crescent, 45% of the Moon is Illuminated
Dec 19
Waxing Crescent
Dec 19
First Quarter
Dec 28
Full
Jan 4
Last Quarter
Jan 11
New

Hourly Weather History & Observations

Time (CST) Temp. Windchill Dew Point Humidity Pressure Visibility Wind Dir Wind Speed Gust Speed Precip Events Conditions
12:15 AM 24.8 °F 19.1 °F 21.2 °F 86% 29.63 in 5.0 mi SSE 4.6 mph - N/A   Overcast
12:35 AM 24.8 °F 19.1 °F 21.2 °F 86% 29.63 in 6.0 mi SSE 4.6 mph - N/A   Overcast
12:55 AM 24.8 °F 19.1 °F 23.0 °F 93% 29.63 in 5.0 mi SSW 4.6 mph - N/A   Overcast
1:15 AM 24.8 °F 16.1 °F 23.0 °F 93% 29.63 in 7.0 mi West 8.1 mph - N/A   Overcast
1:35 AM 24.8 °F 17.9 °F 21.2 °F 86% 29.64 in 10.0 mi West 5.8 mph - N/A   Overcast
1:55 AM 24.8 °F 17.9 °F 21.2 °F 86% 29.65 in 10.0 mi West 5.8 mph - N/A   Overcast
2:15 AM 24.8 °F 17.9 °F 21.2 °F 86% 29.65 in 10.0 mi WSW 5.8 mph - N/A   Overcast
2:35 AM 23.0 °F 13.1 °F 19.4 °F 86% 29.66 in 10.0 mi WSW 9.2 mph - N/A   Overcast
2:55 AM 23.0 °F 12.4 °F 19.4 °F 86% 29.66 in 10.0 mi WSW 10.4 mph - N/A   Overcast
3:15 AM 21.2 °F 10.9 °F 19.4 °F 93% 29.66 in 5.0 mi West 9.2 mph - N/A   Overcast
3:35 AM 21.2 °F 10.1 °F 17.6 °F 86% 29.67 in 9.0 mi WSW 10.4 mph - N/A   Overcast
3:55 AM 21.2 °F 10.9 °F 17.6 °F 86% 29.66 in 10.0 mi West 9.2 mph - N/A   Overcast
4:15 AM 21.2 °F 10.1 °F 17.6 °F 86% 29.66 in 10.0 mi West 10.4 mph - N/A   Overcast
4:35 AM 21.2 °F 10.1 °F 17.6 °F 86% 29.66 in 10.0 mi West 10.4 mph - N/A   Overcast
4:55 AM 21.2 °F 10.1 °F 17.6 °F 86% 29.67 in 10.0 mi West 10.4 mph - N/A   Overcast
5:15 AM 21.2 °F 10.1 °F 17.6 °F 86% 29.68 in 10.0 mi West 10.4 mph - N/A   Overcast
5:35 AM 21.2 °F 9.5 °F 17.6 °F 86% 29.68 in 10.0 mi West 11.5 mph - N/A   Overcast
5:55 AM 21.2 °F 10.9 °F 17.6 °F 86% 29.68 in 10.0 mi West 9.2 mph - N/A   Overcast
6:15 AM 21.2 °F 10.9 °F 17.6 °F 86% 29.69 in 10.0 mi West 9.2 mph - N/A   Overcast
6:35 AM 21.2 °F 11.7 °F 17.6 °F 86% 29.70 in 10.0 mi WSW 8.1 mph - N/A   Overcast
6:55 AM 21.2 °F 10.1 °F 17.6 °F 86% 29.71 in 10.0 mi West 10.4 mph - N/A   Overcast
7:15 AM 21.2 °F 10.9 °F 17.6 °F 86% 29.71 in 10.0 mi WSW 9.2 mph - N/A   Overcast
7:35 AM 21.2 °F 9.5 °F 15.8 °F 80% 29.71 in 10.0 mi WSW 11.5 mph - N/A   Overcast
7:55 AM 19.4 °F 6.6 °F 15.8 °F 86% 29.72 in 10.0 mi West 12.7 mph - N/A   Overcast
8:15 AM 19.4 °F 7.2 °F 15.8 °F 86% 29.73 in 10.0 mi West 11.5 mph - N/A   Overcast
8:35 AM 19.4 °F 7.9 °F 15.8 °F 86% 29.73 in 10.0 mi West 10.4 mph - N/A   Overcast
8:55 AM 19.4 °F 7.2 °F 15.8 °F 86% 29.74 in 10.0 mi West 11.5 mph - N/A   Overcast
9:15 AM 21.2 °F 10.1 °F 15.8 °F 80% 29.74 in 8.0 mi West 10.4 mph - N/A   Overcast
9:35 AM 21.2 °F 9.5 °F 15.8 °F 80% 29.75 in 10.0 mi West 11.5 mph - N/A   Overcast
9:55 AM 21.2 °F 11.7 °F 17.6 °F 86% 29.76 in 10.0 mi WNW 8.1 mph - N/A   Overcast
10:15 AM 21.2 °F 10.1 °F 15.8 °F 80% 29.77 in 10.0 mi NW 10.4 mph - N/A   Overcast
10:35 AM 19.4 °F 9.5 °F 15.8 °F 86% 29.78 in 5.0 mi NW 8.1 mph - N/A   Mostly Cloudy
10:55 AM 19.4 °F 9.5 °F 15.8 °F 86% 29.78 in 4.0 mi North 8.1 mph - N/A   Overcast
11:15 AM 19.4 °F 5.5 °F 15.8 °F 86% 29.79 in 10.0 mi North 15.0 mph - N/A   Overcast
11:35 AM 17.6 °F 5.0 °F 12.2 °F 79% 29.81 in 10.0 mi North 11.5 mph - N/A   Overcast
11:55 AM 17.6 °F 5.7 °F 12.2 °F 79% 29.83 in 10.0 mi North 10.4 mph - N/A   Overcast
12:15 PM 17.6 °F 6.4 °F 10.4 °F 73% 29.84 in 10.0 mi NNW 9.2 mph - N/A   Overcast
12:35 PM 17.6 °F 5.0 °F 12.2 °F 79% 29.85 in 10.0 mi NNW 11.5 mph - N/A   Overcast
12:55 PM 17.6 °F 4.3 °F 12.2 °F 79% 29.85 in 10.0 mi NNW 12.7 mph - N/A   Overcast
1:15 PM 17.6 °F 3.2 °F 10.4 °F 73% 29.85 in 7.0 mi NNW 15.0 mph - N/A   Overcast
1:35 PM 17.6 °F 4.3 °F 12.2 °F 79% 29.86 in 10.0 mi NNW 12.7 mph - N/A   Overcast
1:55 PM 17.6 °F 3.2 °F 10.4 °F 73% 29.86 in 10.0 mi NNW 15.0 mph - N/A   Overcast
2:15 PM 17.6 °F 3.2 °F 12.2 °F 79% 29.87 in 10.0 mi NNW 15.0 mph - N/A   Overcast
2:35 PM 17.6 °F 4.3 °F 10.4 °F 73% 29.89 in 10.0 mi NNW 12.7 mph - N/A   Overcast
2:55 PM 15.8 °F 3.4 °F 10.4 °F 79% 29.90 in 10.0 mi NW 10.4 mph - N/A   Overcast
3:15 PM 15.8 °F 2.1 °F 10.4 °F 79% 29.91 in 10.0 mi NW 12.7 mph - N/A   Overcast
3:35 PM 15.8 °F 2.1 °F 10.4 °F 79% 29.92 in 10.0 mi NNW 12.7 mph - N/A   Overcast
3:55 PM 15.8 °F 3.4 °F 12.2 °F 86% 29.93 in 10.0 mi NNW 10.4 mph - N/A   Overcast
4:15 PM 17.6 °F 5.7 °F 10.4 °F 73% 29.94 in 10.0 mi NNW 10.4 mph - N/A   Overcast
4:35 PM 17.6 °F 5.0 °F 10.4 °F 73% 29.95 in 10.0 mi NNW 11.5 mph - N/A   Overcast
4:55 PM 17.6 °F 5.0 °F 10.4 °F 73% 29.96 in 10.0 mi NNW 11.5 mph - N/A   Overcast
5:15 PM 15.8 °F 5.1 °F 10.4 °F 79% 29.97 in 10.0 mi NNW 8.1 mph - N/A   Overcast
5:35 PM 15.8 °F 5.1 °F 10.4 °F 79% 29.98 in 10.0 mi NNW 8.1 mph - N/A   Overcast
5:55 PM 15.8 °F 4.2 °F 10.4 °F 79% 29.98 in 10.0 mi NNW 9.2 mph - N/A   Overcast
6:15 PM 15.8 °F 3.4 °F 10.4 °F 79% 29.98 in 10.0 mi NNW 10.4 mph - N/A   Overcast
6:35 PM 15.8 °F 6.1 °F 10.4 °F 79% 29.99 in 10.0 mi NW 6.9 mph - N/A   Overcast
6:55 PM 15.8 °F 0.9 °F 10.4 °F 79% 30.01 in 10.0 mi WNW 15.0 mph - N/A   Overcast
7:15 PM 14.0 °F -0.8 °F 10.4 °F 86% 30.01 in 10.0 mi NW 13.8 mph - N/A   Overcast
7:35 PM 14.0 °F -1.4 °F 8.6 °F 79% 30.02 in 10.0 mi NW 15.0 mph - N/A   Overcast
7:55 PM 14.0 °F 0.5 °F 8.6 °F 79% 30.03 in 10.0 mi NW 11.5 mph - N/A   Overcast
8:15 PM 12.2 °F -3.1 °F 8.6 °F 85% 30.04 in 10.0 mi NW 13.8 mph - N/A   Overcast
8:35 PM 12.2 °F -1.8 °F 8.6 °F 85% 30.03 in 10.0 mi NW 11.5 mph - N/A   Overcast
8:55 PM 12.2 °F -2.5 °F 8.6 °F 85% 30.03 in 10.0 mi NW 12.7 mph - N/A   Overcast
9:15 PM 10.4 °F -5.4 °F 6.8 °F 85% 30.04 in 10.0 mi NW 13.8 mph - N/A   Overcast
9:35 PM 10.4 °F -4.1 °F 5.0 °F 79% 30.05 in 10.0 mi NW 11.5 mph - N/A   Mostly Cloudy
9:55 PM 8.6 °F -7.0 °F 3.2 °F 79% 30.04 in 10.0 mi NW 12.7 mph - N/A   Overcast
10:15 PM 8.6 °F -7.0 °F 5.0 °F 85% 30.05 in 10.0 mi NW 12.7 mph - N/A   Overcast
10:35 PM 8.6 °F -6.3 °F 3.2 °F 79% 30.04 in 10.0 mi NW 11.5 mph - N/A   Overcast
10:55 PM 8.6 °F -5.5 °F 3.2 °F 79% 30.05 in 10.0 mi NW 10.4 mph - N/A   Overcast
11:15 PM 8.6 °F -5.5 °F 5.0 °F 85% 30.05 in 10.0 mi NW 10.4 mph - N/A   Overcast
11:35 PM 10.4 °F -1.5 °F 6.8 °F 85% 30.06 in 10.0 mi WNW 8.1 mph - N/A   Overcast
11:55 PM 12.2 °F -0.2 °F 6.8 °F 79% 30.07 in 10.0 mi WNW 9.2 mph - N/A   Overcast